"Time","Temp","Dewpoint","Humidity","Pressure","Direction","Speed","Gust","Precip","PrecipRate"
"10:49:57","64.1","45.6","50.9","29.74","248","5.8","13.8","0.00","0.00"
"10:54:59","64.4","46.5","52.1","29.74","231","5.1","12","0.00","0.00"
"10:59:58","65.5","45.9","49.1","29.74","251","4.7","12","0.00","0.00"
"11:04:56","65.9","45.7","48.2","29.74","255","6.2","17.3","0.00","0.00"
"11:09:59","66.4","46","47.8","29.74","249","5.4","15","0.00","0.00"
"11:14:59","67","45","45.1","29.74","280","7.9","20","0.00","0.00"
"11:19:58","67.1","44.2","43.7","29.74","301","8.4","17.3","0.00","0.00"
"11:24:56","67.2","44.7","44.5","29.74","221","6.5","24.2","0.00","0.00"
"11:29:58","67.1","43.4","42.2","29.74","235","7.5","21","0.00","0.00"
"11:34:59","67.7","43.3","41.3","29.74","288","6.1","16.1","0.00","0.00"
"11:39:58","67.8","43.4","41.3","29.74","273","8.8","17","0.00","0.00"
"11:44:59","67.6","43.1","41.1","29.74","302","6.4","17.3","0.00","0.00"
"11:49:56","68.2","44.2","42.1","29.73","271","5.7","14","0.00","0.00"
"11:54:58","68.6","43.4","40.2","29.73","298","5.5","17.3","0.00","0.00"
"11:59:59","68.5","42.9","39.6","29.73","303","8.7","31.1","0.00","0.00"
"12:04:56","68.3","41.7","38.1","29.73","276","9.8","32.2","0.00","0.00"
"12:09:56","68.2","42.5","39.3","29.73","299","7.6","16.1","0.00","0.00"
"12:14:56","68.4","42.2","38.6","29.73","285","7.5","19.6","0.00","0.00"
"12:19:58","68.7","42.8","39.1","29.72","268","9.2","18.4","0.00","0.00"
"12:24:56","68.7","42.9","39.2","29.72","277","7.8","18.4","0.00","0.00"
"12:29:58","69","43.5","39.7","29.72","294","7.1","16.1","0.00","0.00"
"12:34:59","68.9","42.1","37.8","29.72","258","6.3","15","0.00","0.00"
"12:39:59","68.7","41.4","37","29.72","141","8","20","0.00","0.00"
"12:44:56","69.2","43","38.7","29.72","293","5.7","17","0.00","0.00"
"12:49:58","69.7","40.2","34.2","29.72","306","8.9","27","0.00","0.00"
"12:54:56","69.2","40.7","35.5","29.72","299","7.8","25.3","0.00","0.00"
"12:59:57","68.5","39.5","34.6","29.72","306","10.1","25.3","0.00","0.00"
"13:04:59","68.5","41.7","37.7","29.72","296","6.9","19.6","0.00","0.00"
"13:09:59","68.8","40.5","35.6","29.72","287","8.2","19.6","0.00","0.00"
"13:14:59","69.1","41.1","36.1","29.72","302","5.3","16.1","0.00","0.00"
"13:19:58","69.5","40.2","34.4","29.72","315","6","15","0.00","0.00"
"13:24:56","69.4","39.5","33.7","29.72","330","8.5","21","0.00","0.00"
"13:29:59","69.2","39.6","34","29.72","290","8.2","17.3","0.00","0.00"
"13:34:57","69.3","40","34.4","29.71","272","6.1","18","0.00","0.00"
"13:39:57","69.8","40.5","34.5","29.71","289","6","16.1","0.00","0.00"
"13:44:59","70.1","41.1","34.8","29.71","290","7.4","18","0.00","0.00"
"13:49:58","70.3","40.2","33.6","29.71","264","6.2","18.4","0.00","0.00"
"13:54:56","70.4","40.1","33.2","29.71","320","8","21","0.00","0.00"
"13:59:58","70","39.5","33","29.71","265","8.1","20","0.00","0.00"
"14:04:56","70.2","41","34.8","29.70","346","5.9","16.1","0.00","0.00"
"14:09:59","70.4","39.9","33","29.70","302","8.3","20","0.00","0.00"
"14:14:56","70.5","38.9","31.7","29.70","273","9.1","23","0.00","0.00"
"14:19:57","70","38.4","31.6","29.70","256","8.2","19.6","0.00","0.00"
"14:24:56","70.1","39.3","32.6","29.70","254","8.9","24","0.00","0.00"
"14:29:58","70","39.2","32.5","29.70","316","7.7","33","0.00","0.00"
"14:34:56","70.1","39.6","33","29.70","313","8.7","22","0.00","0.00"
"14:39:57","69.7","37.6","30.8","29.70","297","9.4","26","0.00","0.00"
"14:44:59","69.7","39.8","33.8","29.70","300","8.7","23","0.00","0.00"
"14:49:57","70.3","38.2","31.1","29.68","281","10.4","26","0.00","0.00"
"14:54:56","69.7","36.7","29.8","29.68","280","11.1","23","0.00","0.00"
"14:59:58","69.5","37.5","31","29.68","309","11.8","25","0.00","0.00"
"15:04:56","69.7","39.3","33.1","29.68","300","9.8","23","0.00","0.00"
"15:09:56","70","39.8","33.3","29.68","80","10","23","0.00","0.00"
"15:14:56","70.3","40.3","33.7","29.68","263","7.8","24","0.00","0.00"
"15:19:58","70.5","40.2","33.3","29.68","277","9.6","21","0.00","0.00"
"15:24:56","70.5","40.2","33.3","29.68","313","9.3","21","0.00","0.00"
"15:29:57","70.6","39.1","31.8","29.69","326","11","27","0.00","0.00"
"15:34:59","70.5","39.4","32.2","29.69","311","9.1","21","0.00","0.00"
"15:39:59","70.2","39","32","29.69","305","7.8","18.4","0.00","0.00"
"15:44:58","70.3","39.4","32.4","29.69","310","8.6","19.6","0.00","0.00"
"15:49:56","70","39.1","32.3","29.69","323","8.6","19","0.00","0.00"
"15:54:57","69.9","39.9","33.5","29.69","278","8.4","26","0.00","0.00"
"15:59:56","69.2","38.1","32","29.70","300","10.3","26.5","0.00","0.00"
"16:04:58","69.1","37.7","31.6","29.70","294","11","21","0.00","0.00"
"16:09:57","69.3","38.1","31.9","29.70","303","11.1","25.3","0.00","0.00"
"16:14:58","69.3","38.7","32.8","29.71","327","9.1","20","0.00","0.00"
"16:19:56","68.1","38.1","33.3","29.71","304","9.6","27","0.00","0.00"
"16:24:58","67.3","37.8","33.7","29.71","284","6.9","26.5","0.00","0.00"
"16:29:56","67","38","34.4","29.74","310","8.9","28","0.00","0.00"
"16:34:59","65.4","40.9","40.8","29.74","336","19.1","43","0.00","0.00"
"16:39:59","62.1","42","47.7","29.74","338","15.7","42.6","0.00","0.00"
"16:44:58","60.6","42.2","50.6","29.76","321","8.6","26.5","0.00","0.00"
"16:49:58","60.2","42.5","52.1","29.76","31","5.4","13","0.00","0.00"
"16:54:57","60.1","42.5","52.3","29.76","314","6.4","13","0.00","0.00"
"16:59:56","60.3","42.2","51.2","29.77","314","10.4","23","0.00","0.00"
"17:04:59","61.1","43.3","51.8","29.77","322","7.5","20","0.00","0.00"
"17:09:56","61.7","43.3","50.9","29.77","332","12.5","26.5","0.00","0.00"
"17:14:57","61.7","44.4","53.1","29.79","317","7.3","17.3","0.00","0.00"
"17:19:57","61.8","44.7","53.5","29.79","307","5.8","16.1","0.00","0.00"
"17:24:56","60.9","44.1","53.9","29.79","304","5.7","14","0.00","0.00"
"17:25:57","60.5","44.4","55.4","29.79","311","5.2","10","0.00","0.00"
"17:39:59","58.5","44.6","59.6","29.80","329","9","22","0.00","0.00"
"17:44:56","57.9","44.3","60.5","29.82","329","7.6","22","0.00","0.00"
"17:49:56","57.4","44.1","61.1","29.82","314","6.5","13.8","0.00","0.00"
"17:54:59","56.8","44.8","64.2","29.82","326","8.2","31","0.00","0.00"
"17:59:58","54.6","45.7","71.7","29.85","318","8.2","31.1","0.00","0.00"
"18:04:59","52.8","45.8","77","29.85","293","6.3","14","0.01","0.01"
"18:09:59","52","46","79.8","29.85","308","5.1","12","0.01","0.01"
"18:14:56","51.7","46.3","81.6","29.86","323","4.2","11.5","0.01","0.01"
"18:19:56","51.6","46.7","83.4","29.86","311","2.7","10.4","0.02","0.02"
"18:24:58","51.4","46.5","83.6","29.86","309","4","12","0.02","0.02"
"18:29:58","51.1","46.6","84.6","29.86","281","3.1","10.4","0.03","0.03"
"18:34:57","50.7","46.3","84.8","29.86","279","3.3","7","0.03","0.03"
"18:39:58","50.5","45.8","83.9","29.86","296","6.8","24","0.03","0.03"
"18:44:56","50.5","44.6","80.1","29.86","287","9.2","24.2","0.03","0.03"
"18:49:57","50.5","44.6","80","29.85","286","4.7","12","0.03","0.03"
"18:54:59","50.4","43.9","78.2","29.85","304","5.2","18.4","0.03","0.03"
"18:59:57","50.6","43.2","75.5","29.85","297","5.9","20","0.03","0.03"
"19:04:58","50.8","42.9","74.1","29.85","269","5","19.6","0.03","0.03"
"19:09:58","51","43","74","29.85","286","5.2","17.3","0.03","0.02"
"19:14:58","51.2","42.9","73.2","29.85","277","4.9","15","0.03","0.02"
"19:19:59","51.3","42.9","72.7","29.85","297","4.1","15","0.03","0.02"
"19:24:57","51.3","43.1","73.5","29.85","287","4.4","11.5","0.03","0.01"
"19:29:58","51.2","42.8","73.1","29.86","273","3.6","12","0.03","0.01"
"19:34:56","51.1","42.4","72","29.86","297","4.5","11.5","0.03","0.00"
"19:39:57","51.3","42.4","71.5","29.86","237","2.9","6.9","0.03","0.00"
"19:44:57","51.2","42.2","71.5","29.86","256","4.1","11.5","0.03","0.00"
"19:49:59","51.1","42.5","72.5","29.86","258","3.9","12","0.03","0.00"
"19:54:58","50.8","42.6","73.2","29.86","253","4.3","12","0.03","0.00"
"19:59:57","50.7","42.9","74.4","29.86","223","3.2","9.2","0.03","0.00"
"20:04:59","50.4","42.8","74.8","29.86","262","3.6","12","0.03","0.00"
"20:09:55","50.3","42.7","74.9","29.86","228","2.5","11.5","0.03","0.00"
"20:14:58","50.2","42.6","75.2","29.87","252","4","11","0.03","0.00"
"20:19:58","50.2","42.5","74.8","29.87","295","2.9","10.4","0.03","0.00"
"20:24:57","50.3","42.4","74.2","29.87","264","3.8","10.4","0.03","0.00"
"20:29:57","50.4","42.3","73.7","29.87","279","3.1","13","0.03","0.00"
"20:34:57","50.3","42.2","73.7","29.87","292","2.4","12.7","0.03","0.00"
"20:39:58","50.1","42.1","73.8","29.87","337","2.2","6","0.03","0.00"
"20:44:58","49.9","41.5","72.6","29.88","279","2.8","7","0.03","0.00"
"20:49:57","50.1","41","71","29.88","281","3.2","11","0.03","0.00"
"20:54:56","50.3","41","70.2","29.88","307","3.8","10.4","0.03","0.00"
"20:59:56","50.4","40.8","69.5","29.89","253","4.8","17.3","0.03","0.00"
"21:04:58","50.6","40.2","67.5","29.89","301","4","9.2","0.03","0.00"
"21:09:58","50.9","39.9","66.2","29.89","296","4.6","12","0.03","0.00"
"21:14:56","51.2","39.3","63.9","29.89","323","6.4","16","0.03","0.00"
"21:19:59","51.5","39.2","62.8","29.89","296","4.8","12.7","0.03","0.00"
"21:24:59","51.6","38.9","61.7","29.89","316","6.8","20","0.03","0.00"
"21:29:58","51.7","38.6","60.7","29.90","316","5.8","13","0.03","0.00"
"21:34:57","51.7","38.4","60.3","29.90","314","6","20","0.03","0.00"
"21:39:59","51.8","37.6","58.3","29.90","312","9.1","21","0.03","0.00"
"21:44:58","52","37.7","58.2","29.91","323","5.3","16.1","0.03","0.00"
"21:49:58","51.9","37.3","57.3","29.91","313","6.9","19.6","0.03","0.00"
"21:54:57","51.8","37.4","57.8","29.91","310","4.9","12","0.03","0.00"
"21:59:57","51.7","37","57.1","29.92","308","6.4","16.1","0.03","0.00"
"22:04:59","51.7","36.6","56.3","29.92","288","6.3","14","0.03","0.00"
"22:09:59","51.6","36.6","56.3","29.92","273","5.8","13.8","0.03","0.00"
"22:14:57","51.6","36.2","55.8","29.92","286","5.8","24","0.03","0.00"
"22:19:56","51.5","36.1","55.4","29.92","312","5","13","0.03","0.00"
"22:24:59","51.5","35.6","54.4","29.92","314","6","15","0.03","0.00"
"22:29:59","51.5","35.3","53.7","29.93","310","4.6","13","0.03","0.00"
"22:34:56","51.4","35.4","54.3","29.93","308","4","11","0.03","0.00"
"22:39:58","51.4","34.7","52.7","29.93","325","7.4","18.4","0.03","0.00"
"22:44:57","51.8","33.9","50.6","29.94","332","9.3","20","0.03","0.00"
"22:49:56","51.8","34.2","51.1","29.94","307","3.7","12","0.03","0.00"
"22:54:56","51.4","34.2","51.7","29.94","321","4.1","12","0.03","0.00"
"22:59:59","51.1","33.2","50.2","29.94","334","7.1","18.4","0.03","0.00"
"23:04:58","51","32.9","49.8","29.94","340","6","17.3","0.03","0.00"
"23:09:57","50.9","32.7","49.6","29.94","341","6.2","17.3","0.03","0.00"
"23:14:59","50.7","32.4","49.4","29.95","337","5.1","11.5","0.03","0.00"
"23:19:59","50.5","32.3","49.6","29.95","320","4.7","11.5","0.03","0.00"
"23:24:58","50.3","31.9","49.2","29.95","285","3.7","10.4","0.03","0.00"
"23:29:58","50.2","32.1","49.7","29.95","310","4.1","10.4","0.03","0.00"
"23:34:57","50","31.2","48.3","29.95","333","5.9","13","0.03","0.00"
"23:39:59","50","31","47.9","29.95","330","5.4","10.4","0.03","0.00"
"23:44:58","49.9","30.9","47.7","29.95","314","5.6","17","0.03","0.00"
"23:49:58","49.9","30.4","46.9","29.95","333","5.7","14","0.03","0.00"
"23:54:57","50.1","30.1","45.9","29.95","318","6.4","13.8","0.03","0.00"
"23:59:57","50","30.1","46.3","29.95","323","5.7","18","0.03","0.00"
